Terug naar catalogus

STARLINK-3896

ActiefCommunicatieVLEO
NORAD 52456·PAYLOAD·🇺🇸 United States

Gelanceerd May 6, 2022 vanaf Cape Canaveral Space Force Station

Loading…

Volgende Passages (komende 24 uur)

TLE

VersSource: CelesTrak SupGP

Epoch: Sep 15, 2026, 01:09 UTC

1 52456C 22049F   26258.04840278  .00040900  00000+0  13152-2 0  2589
2 52456  53.1582 293.2761 0001139  92.7329 230.3263 15.31683724    14

Volg STARLINK-3896 in realtime met AllMySat

Download on the App Store